This is the latest recevied weather packets stored in our database for station/object F5IOR. If no packets are shown the sender has not sent any weather packets the latest 10 day(s).
| Time | Temp. | Humidity | Pressure | Rain* | Wind** | Luminosity | Snow |
|---|---|---|---|---|---|---|---|
| 1788433565 | 25° C | 47% | 996.7 hPa | 0 mm | - | - | - |
| 1788431765 | 24.44° C | 49% | 996.8 hPa | 0 mm | - | - | - |
| 1788429965 | 22.78° C | 54% | 997.1 hPa | 0 mm | - | - | - |
| 1788428165 | 22.22° C | 55% | 997.1 hPa | 0 mm | - | - | - |
| 1788427205 | 21.11° C | 58% | 997.2 hPa | 0 mm | - | - | - |
| 1788426245 | 20.56° C | 60% | 997.3 hPa | 0 mm | - | - | - |
| 1788425285 | 20° C | 62% | 997.2 hPa | 0 mm | - | - | - |
| 1788424325 | 18.89° C | 67% | 997.2 hPa | 0 mm | - | - | - |
| 1788423845 | 18.89° C | 67% | 997.2 hPa | 0 mm | - | - | - |
| 1788423365 | 18.89° C | 67% | 997.2 hPa | 0 mm | - | - | - |
| 1788422885 | 17.78° C | 70% | 997.1 hPa | 0 mm | - | - | - |
| 1788422405 | 17.78° C | 70% | 997.1 hPa | 0 mm | - | - | - |
| 1788422165 | 17.22° C | 74% | 997.1 hPa | 0 mm | - | - | - |
| 1788421925 | 17.22° C | 74% | 997.1 hPa | 0 mm | - | - | - |
| 1788421685 | 17.22° C | 74% | 997.1 hPa | 0 mm | - | - | - |
| 1788421445 | 17.22° C | 73% | 997.1 hPa | 0 mm | - | - | - |
| 1788421325 | 17.22° C | 73% | 997.1 hPa | 0 mm | - | - | - |
| 1788421205 | 17.22° C | 73% | 997.1 hPa | 0 mm | - | - | - |
| 1788421085 | 17.22° C | 73% | 997.1 hPa | 0 mm | - | - | - |
| 1788420965 | 17.22° C | 73% | 997.1 hPa | 0 mm | - | - | - |
| 1788420905 | 17.22° C | 73% | 997.1 hPa | 0 mm | - | - | - |
| 1788420845 | 17.22° C | 73% | 997.1 hPa | 0 mm | - | - | - |
| 1788420785 | 17.22° C | 73% | 997.1 hPa | 0 mm | - | - | - |
| 1788375967 | 21.11° C | 60% | 993.8 hPa | 0 mm | - | - | - |
| 1788374167 | 22.22° C | 56% | 993.7 hPa | 0 mm | - | - | - |
* Rain latest hour (hover to see other rain measurements)
** Current wind speed in m/s (hover to see current wind gust speed)